Flag for Guadeloupe Weather past 2 weeks in Basse-Terre, Guadeloupe

Now
75 °F

Passing clouds.


Feels Like: 76 °F
Forecast: 74 / 78 °F
Wind: 8 mph from East

Location: Le Raizet - Guadeloupe


UV Index: 10 (Very high)

Visibility: N/A


Pressure: 30.04 "Hg

Humidity: 78%

Dew point: 68 °F

Location of Basse-TerreLocation

Historic Weather in Basse-Terre

°F

Basse-Terre temperature yesterday

Maximum temperature yesterday: 86 °F (at 12:00 PM)
Minimum temperature yesterday: 70 °F (at 4:00 AM)
Average temperature yesterday: 77 °F

Past Weeks' High & Low Weather Summary

 TemperatureHumidityPressure
High88 °F (Apr 9, 2:00 PM)100% (Apr 5, 1:00 AM)30.12 "Hg (Apr 5, 1:00 AM)
Low66 °F (Apr 3, 4:30 AM)33% (Apr 9, 1:00 PM)29.86 "Hg (Apr 15, 3:30 PM)
Average77 °F72%30.01 "Hg
* Reported Apr 2 10:00 PM — Apr 17 10:30 PM, Basse-Terre, Weather by CustomWeather, © 2014

Note: Actual official high and low records may vary slightly from our data, if they occured in-between our weather recording intervals... More about our weather records

Advertising

Historic Weather Conditions — Data for Previous 24 hours

 ConditionsComfort  
Time TempWeatherWind HumidityBarometerVisibility
10:30 PM
Apr 17
75 °FPassing clouds.6 mph78%30.04 "HgN/A
10:00 PM75 °FClear.8 mph78%30.04 "HgN/A
9:30 PM73 °FClear.6 mph89%30.04 "HgN/A
9:00 PM73 °FMostly cloudy.7 mph89%30.04 "HgN/A
8:30 PM73 °FLight rain. Partly cloudy.5 mph89%30.04 "HgN/A
8:00 PM73 °FLight rain. Partly cloudy.7 mph83%30.01 "Hg5 mi
7:30 PM73 °FLight rain. Partly cloudy.9 mph83%30.01 "HgN/A
7:00 PM73 °FSprinkles. Passing clouds.9 mph83%30.01 "Hg5 mi
6:30 PM75 °FPassing clouds.8 mph78%30.01 "HgN/A
6:00 PM75 °FBroken clouds.7 mph78%29.98 "HgN/A
5:30 PM77 °FBroken clouds.9 mph79%29.98 "HgN/A
5:00 PM81 °FBroken clouds.12 mph66%29.98 "HgN/A
4:30 PM81 °FPartly sunny.12 mph62%29.98 "HgN/A
4:00 PM82 °FScattered clouds.12 mph62%29.98 "HgN/A
3:30 PM81 °FScattered clouds.12 mph62%29.98 "HgN/A
3:00 PM82 °FScattered clouds.16 mph58%29.98 "HgN/A
2:30 PM81 °FScattered clouds.10 mph70%29.98 "HgN/A
2:00 PM79 °FSprinkles. Broken clouds.13 mph74%29.98 "HgN/A
1:00 PM79 °FPartly sunny.8 mph79%30.01 "HgN/A
12:30 PM82 °FPartly sunny.12 mph62%30.01 "HgN/A
12:00 PM81 °FSprinkles. Partly sunny.13 mph66%30.01 "HgN/A
11:30 AM79 °FPartly sunny.10 mph74%30.01 "HgN/A
11:00 AM75 °FSprinkles. Partly sunny.14 mph78%30.01 "Hg4 mi
10:30 AM82 °FRain. Partly sunny.12 mph62%30.01 "HgN/A
10:00 AM82 °FRain. Broken clouds.12 mph66%30.01 "HgN/A
9:30 AM79 °FRain. Broken clouds.6 mph74%30.04 "HgN/A
9:00 AM75 °FBroken clouds.3 mph83%30.01 "HgN/A
8:30 AM73 °FBroken clouds.2 mph89%30.01 "HgN/A
8:00 AM73 °FPartly sunny.10 mph83%30.01 "HgN/A
7:35 AM75 °FRain. Broken clouds.7 mph83%30.01 "HgN/A
7:30 AM75 °FRain. Partly sunny.7 mph83%30.01 "HgN/A
7:00 AM73 °FLight rain. Broken clouds.9 mph89%29.98 "Hg4 mi
6:30 AM73 °FHeavy rain. Fog.8 mph89%29.98 "Hg0 mi
6:00 AM73 °FPartly sunny.6 mph89%29.98 "HgN/A
5:30 AM73 °FPartly cloudy.5 mph89%29.95 "HgN/A
5:00 AM73 °FLight rain. Fog.3 mph89%29.95 "Hg2 mi
4:30 AM73 °FFog.6 mph89%29.95 "Hg2 mi
4:00 AM73 °FPassing clouds.8 mph83%29.95 "HgN/A
3:30 AM75 °FOvercast.6 mph78%29.95 "HgN/A
3:00 AM75 °FMostly cloudy.No wind74%29.95 "HgN/A
2:30 AM75 °FOvercast.3 mph74%29.95 "HgN/A
2:00 AM75 °FMostly cloudy.7 mph78%29.95 "HgN/A
1:30 AM75 °FClear.5 mph78%29.95 "HgN/A
1:00 AM75 °FClear.7 mph83%29.98 "HgN/A
12:30 AM75 °FPartly cloudy.10 mph78%29.98 "HgN/A
12:00 AM75 °FPassing clouds.5 mph78%29.98 "HgN/A
11:30 PM
Apr 16
75 °FClear.6 mph78%29.98 "HgN/A
11:00 PM75 °FClear.3 mph78%29.98 "HgN/A
Weather by CustomWeather, © 2014

See weather overview